GOES 11 [-]

Last updated on Nov. 20, 2019, 4:19 a.m. UTC

1 26352U 00022A   19323.00901789 -.00000101  00000-0  00000+0 0  9996
2 26352   6.7345  66.5371 0005210 198.3833 169.4280  0.99044354 71204
UTC
Height (km)
Latitude
Longitude
Inclination
Orbital Period
UTC large
Height (km)
Speed (km/s)
/
Latitude / Longitude
Inclination (degrees)
Orbital Period (minutes)
Azimuth
Elevation
Range (km)
Doppler Factor
iOS Compass Heading
iOS Angle

Next 30 passes for location: Hong Kong

Rise time Rise Azimuth (degrees) Set time Set Azimuth (degrees) Duration Max altitude (degrees)

No matching passes for this satellites